User: anonymous   Login
Location: Penton Mewsey
(51.2167°N, 1.5167°W)
Time: 19:37:14
(UTC+00:00)
Language:

Cosmos 2219 Rocket - Orbit

View from above orbital plane
View from above orbital plane
View from above satellite
View from above satellite

Ground track
Ground track

The orbit data is extracted from the following two-line orbital elements,

1 22220U 92076B   20184.91798154 -.00000028 +00000-0 +10015-4 0  9993
2 22220 070.9996 239.0296 0012397 008.5238 164.4800 14.16457329427861
Epoch (UTC): 02 July 2020 22:01:53
Eccentricity: 0.0012397
inclination: 70.9996°
perigee height: 828 km
apogee height: 846 km
right ascension of ascending node: 239.0296°
argument of perigee: 8.5238°
revolutions per day: 14.16457329
mean anomaly at epoch: 164.4800°
orbit number at epoch: 42786

The dashed part of the orbit path shows where the satellite is in the earth's shadow,  

DLR